This is the latest recevied weather packets stored in our database for station/object NC4M. If no packets are shown the sender has not sent any weather packets the latest 10 day(s).
| Time | Temp. | Humidity | Pressure | Rain* | Wind** | Luminosity | Snow |
|---|---|---|---|---|---|---|---|
| 1778348975 | 26.11° C | 46% | 1010.9 hPa | 0 mm | - | 910 W/m² | - |
| 1778348672 | 26.11° C | 45% | 1010.6 hPa | 0 mm | - | 907 W/m² | - |
| 1778348367 | 25.56° C | 45% | 1010.7 hPa | 0 mm | - | 907 W/m² | - |
| 1778348067 | 25.56° C | 46% | 1011 hPa | 0 mm | - | 905 W/m² | - |
| 1778347764 | 25.56° C | 49% | 1011 hPa | 0 mm | - | 901 W/m² | - |
| 1778347461 | 25.56° C | 44% | 1010.9 hPa | 0 mm | - | 899 W/m² | - |
| 1778347156 | 25.56° C | 48% | 1010.9 hPa | 0 mm | - | 896 W/m² | - |
| 1778346853 | 25.56° C | 48% | 1010.9 hPa | 0 mm | - | 893 W/m² | - |
| 1778346549 | 25.56° C | 49% | 1011.3 hPa | 0 mm | - | 886 W/m² | - |
| 1778346244 | 25° C | 51% | 1011.3 hPa | 0 mm | - | 883 W/m² | - |
| 1778345941 | 25° C | 48% | 1011.2 hPa | 0 mm | - | 877 W/m² | - |
| 1778345635 | 25° C | 55% | 1011.4 hPa | 0 mm | - | 871 W/m² | - |
| 1778345331 | 24.44° C | 52% | 1011.3 hPa | 0 mm | - | 864 W/m² | - |
| 1778345027 | 24.44° C | 57% | 1011.4 hPa | 0 mm | - | 858 W/m² | - |
| 1778344723 | 23.89° C | 57% | 1011.3 hPa | 0 mm | - | 850 W/m² | - |
| 1778344420 | 23.89° C | 53% | 1011.4 hPa | 0 mm | - | 844 W/m² | - |
| 1778344119 | 23.89° C | 55% | 1011.4 hPa | 0 mm | - | 835 W/m² | - |
| 1778343818 | 23.33° C | 53% | 1011.4 hPa | 0 mm | - | 825 W/m² | - |
| 1778343514 | 23.33° C | 54% | 1011.3 hPa | 0 mm | - | 815 W/m² | - |
| 1778343211 | 22.78° C | 57% | 1011.4 hPa | 0 mm | - | 806 W/m² | - |
| 1778342906 | 22.78° C | 57% | 1011.4 hPa | 0 mm | - | 796 W/m² | - |
| 1778342602 | 22.22° C | 62% | 1011.3 hPa | 0 mm | - | 787 W/m² | - |
| 1778342298 | 22.22° C | 59% | 1011.4 hPa | 0 mm | - | 825 W/m² | - |
| 1778341994 | 21.67° C | 70% | 1011.4 hPa | 0 mm | - | 838 W/m² | - |
| 1778341691 | 21.11° C | 63% | 1011.5 hPa | 0 mm | - | 766 W/m² | - |
* Rain latest hour (hover to see other rain measurements)
** Current wind speed in m/s (hover to see current wind gust speed)